STARLINK-11594, 64320

Orbit data source: Space-Track

STARLINK-11594, 64320 is a payload satellite owned by SpaceX/Seattle (US) in LEO that was launched on Tue, 10 Jun 2025 UTC via an FALCON 9 launch vehicle from the Air Force Eastern Test Range (AFETR). Payload-class satellites include a variety of spacecraft equipped with specific instruments for various scientific and technological missions. These include communications satellites like Starlink; space stations such as the ISS; scientific satellites like the Hubble; Earth observation satellites from companies like Planet Labs, Umbra, and HawkEye 360; GPS; miniature CubeSats for education and research; and military/defense satellites.

Loading next visibility...
Identifier
64320, 2025-124D
Orbit
LEO
Country
Flag of USUS
Related business
Manufacturer
SpaceX/Seattle
Mission
Operational Commercial Communications
Bus & Motor
STARLINK V2MD, Unknown motor
Mass
960 kg wet, ~910 kg dry
Launch date (UTC)
2025-06-10 (11 months ago)
Launch vehicle
FALCON 9
Launch site
Air Force Eastern Test Range (AFETR)
Object type
Payload
Rocket body
Debris
Shape & HBR
Box + 2 Pan, 18.1 m
Radar Cross Section
36.964 m², Large (>1 m²)

Expand to show TLE details & history
Last TLE update: 1 day ago

TLE from 1 day ago
0 STARLINK-11594
1 64320U 25124D   26128.98802349  .00215820  00000-0  16356-2 0  9992
2 64320  42.9976  26.1240 0003659 258.3384 101.7074 15.70930689 52314
Epoch: 2026-05-08T23:42Z
TLE epoch observation values (Epoch: 2026-05-08T23:42:45.229Z)
Latitude
0.00004°
Longitude
163.62367°
Altitude
356.508 km
Speed
7.697 km/s
True Right ascension
01h 44m 29s
True Declination
0° 00' 00"
Sunlit
Object was in daylight at epoch
Visualization orbit readout
Latitude
Unknown
Longitude
Unknown
Altitude
Unknown
Speed
Unknown
Apparent Right ascension
Unknown
Apparent Declination
Unknown
Sunlit
N/A
Visualization observer readout
Local Sidereal Time
07:24:29
Azimuth
Unknown
Elevation
Unknown
Doppler factor
Unknown
Orbital elements
Apogee altitude
360.683 km
Perigee altitude
355.753 km
Semi-major axis
6,736.355 km
Eccentricity
0.00037
Inclination
42.9976°
RAAN
26.124°
Arg. of periapsis
258.3384°
True anomaly
101.74845°
Mean anomaly
101.7074°
Eccentric anomaly
101.72793°
Mean motion
3.9256 °/min
Orbital period
91.71 mins
BSTAR
0.0016356
Loading maneuver chart data...
Computing Atmospheric mass density...
Loading historical data...
Loading historical data...
Loading historical data...
Loading historical data...
Loading historical data...
Loading historical data...
Loading historical data...

Documentation

Showing up to 5 results
|